DW3478 Weather Reports


time (UTC)temp
C
wind
direction
speed
KPH
gust
KPH
rain 1hr
cm
rain 24hr
cm
rain mn
cm
humidity
%
barometer
mb
20260903162804 27 131 16.1 22.5 0.00 0.00 0.00 58 1020.0
20260903155805 27 154 11.3 19.3 0.00 0.00 0.00 57 1020.0
20260903155306 27 135 6.4 16.1 0.00 0.00 0.00 57 1020.0
20260903154304 27 154 8.0 16.1 0.00 0.00 0.00 57 1020.0
20260903153805 28 132 8.0 12.9 0.00 0.00 0.00 56 1020.0
20260903153304 28 145 9.7 16.1 0.00 0.00 0.00 56 1020.0
20260903152804 28 129 8.0 19.3 0.00 0.00 0.00 57 1020.0
20260903152306 28 144 6.4 11.3 0.00 0.00 0.00 56 1020.0
20260903151306 27 165 8.0 11.3 0.00 0.00 0.00 59 1020.0
20260903150806 27 200 4.8 14.5 0.00 0.00 0.00 58 1020.0
20260903145306 30 267 1.6 8.0 0.00 0.00 0.00 56 1020.0
20260903134806 28 300 1.6 4.8 0.00 0.00 0.00 57 1020.0
20260903134305 27 297 3.2 8.0 0.00 0.00 0.00 57 1020.0
20260903133806 28 294 1.6 11.3 0.00 0.00 0.00 58 1020.0
20260903132805 27 299 3.2 16.1 0.00 0.00 0.00 58 1020.0
20260903132306 27 290 3.2 16.1 0.00 0.00 0.00 58 1020.0
20260903123305 26 300 3.2 14.5 0.00 0.00 0.00 63 1021.0
20260903122806 27 317 3.2 8.0 0.00 0.00 0.00 62 1021.0
20260903121305 27 314 3.2 4.8 0.00 0.00 0.00 63 1021.0
20260903120806 26 308 3.2 4.8 0.00 0.00 0.00 63 1021.0
20260903120306 26 312 3.2 9.7 0.00 0.00 0.00 65 1021.0
20260903115805 26 291 3.2 14.5 0.00 0.00 0.00 66 1021.0
20260903115306 26 296 3.2 4.8 0.00 0.00 0.00 66 1021.0
20260903114806 26 280 3.2 11.3 0.00 0.00 0.00 69 1021.0
20260903114305 26 275 8.0 19.3 0.00 0.00 0.00 66 1021.0
20260903112805 25 305 4.8 16.1 0.00 0.00 0.00 68 1021.0
20260903112306 26 301 1.6 4.8 0.00 0.00 0.00 68 1021.0
20260903111805 25 292 1.6 4.8 0.00 0.00 0.00 70 1021.0
20260903104806 25 286 4.8 11.3 0.00 0.00 0.00 70 1021.0
20260903100306 22 310 0.0 1.6 0.00 0.00 0.00 81 1021.0
20260903095806 22 276 0.0 4.8 0.00 0.00 0.00 82 1021.0
20260903095306 22 300 0.0 3.2 0.00 0.00 0.00 82 1021.0
20260903094806 22 271 0.0 3.2 0.00 0.00 0.00 84 1021.0
20260903094306 22 286 0.0 4.8 0.00 0.00 0.00 85 1021.0
20260903092805 22 279 1.6 8.0 0.00 0.00 0.00 85 1021.0
20260903091805 21 266 0.0 4.8 0.00 0.00 0.00 86 1021.0
20260903091305 21 330 1.6 4.8 0.00 0.00 0.00 86 1021.0
20260903090805 21 289 0.0 11.3 0.00 0.00 0.00 86 1021.0
20260903085306 21 0 1.6 4.8 0.00 0.00 0.00 87 1021.0
20260903084805 21 287 1.6 11.3 0.00 0.00 0.00 87 1021.0
20260903083805 21 254 1.6 4.8 0.00 0.00 0.00 88 1021.0
20260903083305 21 258 0.0 4.8 0.00 0.00 0.00 88 1021.0
20260903082806 21 248 0.0 4.8 0.00 0.00 0.00 88 1021.0
20260903081305 21 245 0.0 3.2 0.00 0.00 0.00 88 1021.0
20260903080305 21 245 1.6 4.8 0.00 0.00 0.00 88 1021.0
20260903075805 21 254 1.6 3.2 0.00 0.00 0.00 89 1021.0
20260903073805 20 128 1.6 3.2 0.00 0.00 0.00 88 1020.0
20260903072805 20 9 0.0 1.6 0.00 0.00 0.00 89 1020.0
20260903071305 20 15 0.0 1.6 0.00 0.00 0.00 89 1020.0
20260903070804 20 15 0.0 1.6 0.00 0.00 0.00 89 1020.0
20260903070306 20 15 1.6 3.2 0.00 0.00 0.00 89 1020.0
20260903065805 20 15 1.6 3.2 0.00 0.00 0.00 89 1020.0
20260903062306 20 5 1.6 3.2 0.00 0.00 0.00 89 1019.0
20260903061805 20 338 1.6 3.2 0.00 0.00 0.00 89 1019.0
20260903055805 20 331 0.0 4.8 0.00 0.00 0.00 89 1019.0
20260903055306 20 342 0.0 4.8 0.00 0.00 0.00 88 1019.0
20260903054805 20 342 1.6 3.2 0.00 0.00 0.00 88 1019.0
20260903054306 20 355 1.6 4.8 0.00 0.00 0.00 88 1019.0
20260903051305 20 6 1.6 3.2 0.00 0.03 0.00 88 1019.0
20260903050305 20 21 3.2 4.8 0.00 0.03 0.00 88 1019.0
20260903044805 20 10 1.6 3.2 0.00 0.03 0.00 87 1019.0
20260903044305 20 4 1.6 3.2 0.00 0.03 0.00 87 1019.0
20260903043305 20 321 1.6 3.2 0.00 0.03 0.00 87 1019.0
20260903042805 20 349 1.6 3.2 0.00 0.03 0.00 87 1019.0
20260903042306 20 356 3.2 4.8 0.00 0.03 0.00 87 1019.0
20260903041805 20 17 1.6 4.8 0.00 0.03 0.00 87 1019.0
20260903040304 20 7 1.6 4.8 0.00 0.03 0.00 88 1019.0
20260903035804 20 357 1.6 3.2 0.00 0.03 0.00 88 1019.0
20260903035306 20 14 1.6 4.8 0.00 0.03 0.00 88 1019.0
20260903034805 20 353 1.6 4.8 0.00 0.03 0.00 88 1019.0
20260903033804 20 25 3.2 4.8 0.00 0.03 0.00 88 1019.0
20260903033305 20 33 0.0 0.0 0.00 0.03 0.00 88 1019.0
20260903025306 20 83 0.0 3.2 0.00 0.03 0.00 89 1019.0
20260903024805 20 84 1.6 4.8 0.00 0.03 0.00 89 1019.0
20260903024304 20 60 1.6 3.2 0.00 0.03 0.00 89 1019.0
20260903023805 20 84 3.2 4.8 0.00 0.03 0.00 89 1019.0
20260903023304 20 95 1.6 4.8 0.00 0.03 0.00 89 1019.0
20260903021805 20 30 0.0 3.2 0.00 0.03 0.00 89 1019.0
20260903021305 20 18 1.6 4.8 0.00 0.03 0.00 88 1019.0
20260903020305 20 23 1.6 3.2 0.00 0.03 0.00 88 1020.0
20260903013805 20 37 1.6 4.8 0.00 0.03 0.00 89 1020.0
20260903012306 20 37 1.6 4.8 0.00 0.03 0.00 89 1020.0
20260903011805 20 17 1.6 4.8 0.00 0.03 0.00 88 1020.0
20260903010805 20 33 1.6 3.2 0.00 0.03 0.00 88 1020.0
20260903004805 20 19 1.6 4.8 0.00 0.03 0.00 88 1020.0
20260903004305 20 16 1.6 4.8 0.00 0.03 0.00 88 1020.0
20260903003304 20 20 3.2 4.8 0.00 0.03 0.00 88 1020.0
20260903002805 20 21 3.2 4.8 0.00 0.03 0.00 88 1020.0
20260903001805 21 17 0.0 0.0 0.00 0.03 0.00 88 1020.0
20260903001304 21 14 0.0 0.0 0.00 0.03 0.00 88 1020.0
20260903000805 21 14 0.0 0.0 0.00 0.03 0.00 88 1020.0
20260902235805 21 14 0.0 0.0 0.00 0.03 0.00 88 1020.0
20260902234805 21 14 1.6 3.2 0.00 0.03 0.00 88 1020.0
20260902233305 21 38 0.0 0.0 0.00 0.03 0.00 88 1020.0
20260902232306 21 38 0.0 0.0 0.00 0.03 0.00 88 1020.0
20260902231805 21 38 0.0 1.6 0.00 0.03 0.00 88 1020.0
20260902231304 21 38 0.0 1.6 0.00 0.03 0.00 88 1020.0
20260902230804 21 52 0.0 1.6 0.00 0.03 0.00 88 1021.0
20260902230305 21 130 0.0 0.0 0.00 0.03 0.00 88 1021.0
20260902225805 21 130 0.0 4.8 0.00 0.03 0.03 88 1021.0
20260902224304 22 139 1.6 3.2 0.00 0.03 0.03 88 1021.0
20260902221805 22 100 0.0 4.8 0.00 0.03 0.03 87 1021.0
20260902221304 22 181 0.0 0.0 0.00 0.03 0.03 87 1021.0
20260902220805 22 181 0.0 3.2 0.00 0.03 0.03 87 1020.0
20260902215306 22 330 0.0 3.2 0.00 0.03 0.03 86 1020.0
20260902214805 22 269 0.0 1.6 0.00 0.03 0.03 86 1020.0
20260902214305 22 299 0.0 8.0 0.00 0.03 0.03 86 1020.0
20260902213305 22 222 0.0 1.6 0.00 0.03 0.03 86 1020.0
20260902212804 22 222 0.0 3.2 0.00 0.03 0.03 86 1020.0
20260902212306 22 246 1.6 4.8 0.00 0.03 0.03 86 1020.0
20260902211805 22 252 0.0 1.6 0.00 0.03 0.03 86 1020.0
20260902211304 22 252 0.0 1.6 0.00 0.03 0.03 86 1020.0
20260902210804 22 252 0.0 1.6 0.00 0.03 0.03 86 1020.0
20260902210304 22 303 0.0 1.6 0.00 0.03 0.03 86 1020.0
20260902203805 22 236 0.0 0.0 0.00 0.03 0.03 85 1019.0
20260902203304 22 236 0.0 0.0 0.00 0.03 0.03 85 1019.0
20260902200805 22 257 1.6 3.2 0.00 0.03 0.03 83 1019.0
20260902200305 22 257 1.6 4.8 0.00 0.03 0.03 82 1019.0
20260902195306 22 223 1.6 3.2 0.00 0.03 0.03 80 1019.0
20260902194804 22 223 1.6 3.2 0.00 0.03 0.03 80 1019.0
20260902194305 23 260 1.6 4.8 0.00 0.03 0.03 79 1019.0
20260902193305 23 209 0.0 3.2 0.00 0.03 0.03 79 1019.0
20260902192804 23 209 0.0 3.2 0.00 0.03 0.03 79 1019.0
20260902192307 23 209 0.0 1.6 0.00 0.03 0.03 79 1019.0
20260902191804 23 209 0.0 3.2 0.00 0.03 0.03 79 1019.0
20260902190804 23 176 1.6 4.8 0.00 0.03 0.03 78 1019.0
20260902185805 23 186 3.2 4.8 0.00 0.03 0.03 78 1019.0
20260902184304 23 153 3.2 4.8 0.00 0.03 0.03 78 1019.0
20260902182805 23 154 1.6 8.0 0.00 0.03 0.03 79 1020.0
20260902182306 23 130 4.8 9.7 0.00 0.03 0.03 79 1020.0
20260902181804 23 148 4.8 9.7 0.00 0.03 0.03 78 1020.0
20260902181305 23 162 4.8 9.7 0.00 0.03 0.03 78 1020.0
20260902180804 23 171 6.4 12.9 0.00 0.03 0.03 79 1020.0
20260902175307 23 151 6.4 11.3 0.00 0.03 0.03 79 1020.0
20260902174805 23 124 6.4 11.3 0.00 0.03 0.03 79 1020.0
20260902174305 23 181 6.4 9.7 0.00 0.03 0.03 79 1020.0
20260902172805 24 136 8.0 11.3 0.00 0.03 0.03 77 1020.0
20260902171805 24 152 4.8 11.3 0.00 0.03 0.03 75 1020.0
20260902165805 24 146 6.4 11.3 0.00 0.03 0.03 76 1020.0
20260902164304 24 167 6.4 11.3 0.00 0.03 0.03 75 1020.0